Tracking 31027 objects as of 19-Jul-2025
HD Live streaming from Space Station
objects crossing your sky now

PEGASUS DEB

Track PEGASUS DEB now!
10-day predictions


NORAD ID: 24581
Int'l Code: 1994-029YH
Perigee: 569.2 km
Apogee: 1,686.3 km
Inclination: 81.5 °
Period: 107.7 minutes
Semi major axis: 7498 km
RCS: 0.0163 m2 (small)
Launch date: May 19, 1994
Source: United States (US)
Launch site: AIR FORCE WESTERN TEST RANGE (AFWTR)

Note: This is SATELLITE DEBRIS
Your satellite tracking list
COSMOS 2251 DEB
Track 1 satellite(s)




NASA's NSSDC Master Catalog

Two Line Element Set (TLE):
1 24581U 94029YH  25199.29621228  .00004750  00000-0  17462-2 0  9990
2 24581  81.5455 294.6650 0744880 166.0428 257.6759 13.36956978391225
Source of the keplerian elements: AFSPC